Location: Newark
(7.0858°N, 171.3717°E)
Time: 15:06:01
(UTC+00:00)

Vanguard 3 - Pass Details

Date: 30 November 2020
Orbit: 508 x 3262 km, 33.4° (Epoch: 14 January)

Event Time Altitude Azimuth Distance (km) Brightness Sun altitude
Rises 07:09:35 0° 267° (W) 3,717 12.1 -13.3°
Reaches altitude 10° 07:13:52 10° 290° (WNW) 2,305 10.2 -14.3°
Maximum altitude 07:16:38 14° 323° (NW) 1,774 9.1 -15.0°
Drops below altitude 10° 07:18:59 10° 358° (N) 1,881 8.8 -15.5°
Enters shadow 07:19:48 - 8° (N) 2,042 8.9 -15.7°
